Meteo Giornale » Osservazioni meteo Germania » Buechel

ore: 20:20 - Osservazioni Meteo Buechel
Lat. 50° 10' N Lon. 7° 4' E Alt. 478 metri s.l.m.

sereno Europe/Berlin

15 °C

Sereno

Temp. 24 Ore

11 °C

18 °C

Nord

0 Km/h

Dew point 9 °C

Umidità 67 %

Visibilità  7 Km

Il sole sorge alle ore 07:09

Il sole tramonta alle ore 19:42

Data e Ora Cielo e Fenomeni T °C DP °C Um. % Pres. hPa Vis. km Vento km/h
Oggi h: 20:20 sereno Sereno 15 9 67 1016 7 N 0
Oggi h: 19:20 sereno Sereno 16 9 63 1016 8 N 1.8
Oggi h: 18:20 sereno Sereno 17 9 59 1016 10 N 3.7
Oggi h: 17:20 sereno Sereno 16 11 72 1016 10 N 5.5
Oggi h: 16:29 molto_nuvoloso Molto Nuvoloso 17 11 67 1016 10 S 7.4
Oggi h: 16:20 molto_nuvoloso Molto Nuvoloso 17 12 72 1016 10 S 7.4
Oggi h: 15:20 molto_nuvoloso Molto Nuvoloso 16 11 72 1017 10 SE 7.4
Oggi h: 14:20 molto_nuvoloso Molto Nuvoloso 17 11 67 1017 10 E 9.3
Oggi h: 13:20 molto_nuvoloso Molto Nuvoloso 17 9 59 1017 10 N 3.7
Oggi h: 12:20 nuvoloso Nuvoloso 18 10 59 1017 10 N 1.8
Oggi h: 11:20 nuvoloso Nuvoloso 16 11 72 1017 10 N 5.5
Oggi h: 10:20 molto_nuvoloso Molto Nuvoloso 15 12 82 1017 10 O/NO 7.4
Oggi h: 09:20 molto_nuvoloso Molto Nuvoloso 13 12 93 1017 10 N 5.5
Oggi h: 08:20 molto_nuvoloso Molto Nuvoloso 12 12 100 1017 10 N 3.7
Oggi h: 07:20 molto_nuvoloso Molto Nuvoloso 11 11 100 1017 10 O 7.4
Oggi h: 06:20 molto_nuvoloso Molto Nuvoloso 11 11 100 1017 9 N 5.5
Oggi h: 05:20 nuvoloso Nuvoloso 11 11 100 1017 10 N 5.5
Oggi h: 04:59 nuvoloso Nuvoloso 11 11 100 1017 10 O 7.4
Oggi h: 04:20 sereno Sereno 11 11 100 1018 6 O 7.4
Oggi h: 03:20 sereno Sereno 11 11 100 1018 6 N 5.5
Oggi h: 01:20 sereno Sereno 11 11 100 1018 6 N 5.5
Oggi h: 00:20 sereno Sereno 11 11 100 1019 6 N 3.7
Ieri h: 23:20 sereno Sereno 11 11 100 1019 6 O 7.4
Ieri h: 22:20 sereno Sereno 12 11 93 1019 6 N 5.5
Ieri h: 21:20 sereno Sereno 13 10 81 1018 6 N 3.7